Location: Home
(42.5358°N, 72.7383°W)
Time: 19:10:31
(UTC-05:00)

Explorer 7 - Pass Details

Date: 01 December 2021
Orbit: 483 x 674 km, 50.3° (Epoch: 23 January)

Event Time Altitude Azimuth Distance (km) Brightness Sun altitude
Rises 08:09:56 0° 270° (W) 2,741 9.9 9.4°
Reaches altitude 10° 08:12:25 10° 280° (W) 1,811 9.0 9.8°
Maximum altitude 08:16:08 32° 345° (NNW) 910 7.6 10.3°
Drops below altitude 10° 08:19:41 10° 50° (NE) 1,725 9.5 10.7°
Sets 08:21:59 0° 61° (ENE) 2,588 10.5 11.1°
